| time (UTC) | temp C | wind direction | speed KPH | gust KPH | rain 1hr cm | rain 24hr cm | rain mn cm | humidity % | barometer mb |
| 20260906144638 | 27 | 71 | 1.6 | 6.4 | 0.00 | 0.05 | 0.03 | 64 | 1013.5 |
| 20260906144138 | 27 | 217 | 1.6 | 6.4 | 0.00 | 0.05 | 0.03 | 66 | 1013.4 |
| 20260906143638 | 25 | 72 | 1.6 | 6.4 | 0.00 | 0.05 | 0.03 | 69 | 1013.5 |
| 20260906143138 | 26 | 65 | 3.2 | 8.0 | 0.00 | 0.05 | 0.03 | 68 | 1013.5 |
| 20260906142637 | 26 | 48 | 4.8 | 8.0 | 0.00 | 0.05 | 0.03 | 68 | 1013.4 |
| 20260906142140 | 26 | 49 | 1.6 | 6.4 | 0.00 | 0.05 | 0.03 | 68 | 1013.4 |
| 20260906141637 | 25 | 41 | 3.2 | 6.4 | 0.00 | 0.05 | 0.03 | 71 | 1013.4 |
| 20260906141137 | 25 | 71 | 1.6 | 4.8 | 0.00 | 0.05 | 0.03 | 72 | 1013.5 |
| 20260906140917 | 24 | 66 | 3.2 | 9.7 | 0.00 | 0.05 | 0.03 | 71 | 1013.5 |
| 20260906140137 | 24 | 75 | 3.2 | 9.7 | 0.00 | 0.05 | 0.03 | 71 | 1013.4 |
| 20260906135638 | 24 | 51 | 3.2 | 6.4 | 0.00 | 0.05 | 0.03 | 73 | 1013.5 |
| 20260906135140 | 24 | 55 | 1.6 | 6.4 | 0.00 | 0.05 | 0.03 | 73 | 1013.4 |
| 20260906134637 | 24 | 51 | 3.2 | 6.4 | 0.00 | 0.05 | 0.03 | 73 | 1013.5 |
| 20260906134138 | 23 | 102 | 3.2 | 4.8 | 0.00 | 0.05 | 0.03 | 74 | 1013.5 |
| 20260906133639 | 23 | 75 | 3.2 | 8.0 | 0.00 | 0.05 | 0.03 | 75 | 1013.4 |
| 20260906133137 | 23 | 54 | 1.6 | 8.0 | 0.00 | 0.05 | 0.03 | 76 | 1013.5 |
| 20260906132636 | 22 | 75 | 1.6 | 6.4 | 0.00 | 0.05 | 0.03 | 76 | 1013.5 |
| 20260906132138 | 22 | 39 | 3.2 | 6.4 | 0.00 | 0.05 | 0.03 | 77 | 1013.5 |
| 20260906131636 | 22 | 80 | 3.2 | 6.4 | 0.00 | 0.05 | 0.03 | 76 | 1013.3 |
| 20260906131139 | 22 | 48 | 3.2 | 4.8 | 0.00 | 0.05 | 0.03 | 80 | 1013.3 |
| 20260906130637 | 22 | 48 | 1.6 | 4.8 | 0.00 | 0.05 | 0.03 | 81 | 1013.3 |
| 20260906130135 | 21 | 48 | 3.2 | 6.4 | 0.00 | 0.05 | 0.03 | 81 | 1013.3 |
| 20260906125637 | 21 | 51 | 3.2 | 6.4 | 0.00 | 0.05 | 0.03 | 82 | 1013.4 |
| 20260906125135 | 21 | 51 | 3.2 | 4.8 | 0.00 | 0.05 | 0.03 | 84 | 1013.3 |
| 20260906124636 | 20 | 58 | 3.2 | 4.8 | 0.00 | 0.05 | 0.03 | 86 | 1013.3 |
| 20260906124135 | 20 | 72 | 3.2 | 4.8 | 0.00 | 0.05 | 0.03 | 88 | 1013.3 |
| 20260906123637 | 19 | 80 | 0.0 | 4.8 | 0.00 | 0.05 | 0.03 | 90 | 1013.2 |
| 20260906123135 | 19 | 72 | 0.0 | 0.0 | 0.00 | 0.05 | 0.03 | 92 | 1013.2 |
| 20260906122635 | 18 | 72 | 0.0 | 0.0 | 0.00 | 0.05 | 0.03 | 93 | 1013.1 |
| 20260906122413 | 18 | 72 | 0.0 | 0.0 | 0.00 | 0.05 | 0.03 | 93 | 1013.1 |
| 20260906121636 | 18 | 72 | 0.0 | 0.0 | 0.00 | 0.05 | 0.03 | 94 | 1013.1 |
| 20260906121136 | 17 | 72 | 0.0 | 0.0 | 0.00 | 0.05 | 0.03 | 95 | 1013.0 |
| 20260906120636 | 17 | 72 | 0.0 | 0.0 | 0.00 | 0.05 | 0.03 | 95 | 1013.0 |
| 20260906120134 | 16 | 72 | 0.0 | 0.0 | 0.00 | 0.05 | 0.03 | 95 | 1012.9 |
| 20260906115912 | 16 | 72 | 0.0 | 0.0 | 0.00 | 0.05 | 0.03 | 95 | 1012.8 |
| 20260906115134 | 15 | 72 | 0.0 | 0.0 | 0.00 | 0.05 | 0.03 | 94 | 1012.7 |
| 20260906114634 | 15 | 72 | 0.0 | 0.0 | 0.00 | 0.05 | 0.03 | 94 | 1012.8 |
| 20260906114133 | 15 | 72 | 0.0 | 0.0 | 0.00 | 0.05 | 0.03 | 94 | 1012.6 |
| 20260906113634 | 15 | 72 | 0.0 | 0.0 | 0.00 | 0.05 | 0.03 | 94 | 1012.6 |
| 20260906113137 | 15 | 72 | 0.0 | 0.0 | 0.00 | 0.05 | 0.03 | 94 | 1012.6 |
| 20260906112634 | 15 | 72 | 0.0 | 0.0 | 0.00 | 0.05 | 0.03 | 94 | 1012.6 |
| 20260906112133 | 15 | 72 | 0.0 | 0.0 | 0.00 | 0.05 | 0.03 | 94 | 1012.5 |
| 20260906111633 | 15 | 72 | 0.0 | 0.0 | 0.00 | 0.05 | 0.03 | 94 | 1012.5 |
| 20260906111133 | 15 | 72 | 0.0 | 0.0 | 0.00 | 0.05 | 0.03 | 94 | 1012.5 |
| 20260906110635 | 15 | 72 | 0.0 | 0.0 | 0.00 | 0.05 | 0.03 | 94 | 1012.6 |
| 20260906110133 | 15 | 72 | 0.0 | 0.0 | 0.00 | 0.05 | 0.03 | 94 | 1012.5 |
| 20260906105634 | 15 | 72 | 0.0 | 0.0 | 0.00 | 0.05 | 0.03 | 94 | 1012.4 |
| 20260906105133 | 15 | 72 | 0.0 | 0.0 | 0.00 | 0.05 | 0.03 | 94 | 1012.4 |
| 20260906104634 | 15 | 72 | 0.0 | 0.0 | 0.00 | 0.05 | 0.03 | 94 | 1012.4 |
| 20260906104134 | 15 | 72 | 0.0 | 0.0 | 0.00 | 0.05 | 0.03 | 94 | 1012.1 |
| 20260906103632 | 16 | 72 | 0.0 | 0.0 | 0.00 | 0.05 | 0.03 | 94 | 1011.9 |
| 20260906103409 | 16 | 72 | 0.0 | 0.0 | 0.00 | 0.05 | 0.03 | 94 | 1011.7 |
| 20260906102910 | 16 | 72 | 0.0 | 0.0 | 0.00 | 0.05 | 0.03 | 94 | 1011.6 |
| 20260906102131 | 16 | 72 | 0.0 | 0.0 | 0.00 | 0.05 | 0.03 | 94 | 1011.7 |
| 20260906101632 | 16 | 72 | 0.0 | 0.0 | 0.00 | 0.05 | 0.03 | 94 | 1011.6 |
| 20260906101133 | 16 | 72 | 0.0 | 0.0 | 0.00 | 0.05 | 0.03 | 94 | 1011.6 |
| 20260906100632 | 16 | 72 | 0.0 | 0.0 | 0.00 | 0.05 | 0.03 | 93 | 1011.5 |
| 20260906100135 | 16 | 72 | 0.0 | 0.0 | 0.00 | 0.05 | 0.03 | 93 | 1011.4 |
| 20260906095631 | 16 | 72 | 0.0 | 0.0 | 0.00 | 0.05 | 0.03 | 93 | 1011.4 |
| 20260906095408 | 16 | 72 | 0.0 | 0.0 | 0.00 | 0.08 | 0.03 | 93 | 1011.4 |
| 20260906094631 | 16 | 72 | 0.0 | 0.0 | 0.00 | 0.08 | 0.03 | 94 | 1011.3 |
| 20260906094131 | 16 | 72 | 0.0 | 0.0 | 0.00 | 0.08 | 0.03 | 94 | 1011.3 |
| 20260906093631 | 16 | 72 | 0.0 | 0.0 | 0.00 | 0.08 | 0.03 | 94 | 1011.3 |
| 20260906093131 | 16 | 72 | 0.0 | 0.0 | 0.00 | 0.08 | 0.03 | 93 | 1011.3 |
| 20260906092632 | 16 | 72 | 0.0 | 0.0 | 0.00 | 0.08 | 0.03 | 93 | 1011.2 |
| 20260906092131 | 16 | 72 | 0.0 | 0.0 | 0.00 | 0.08 | 0.03 | 93 | 1011.2 |
| 20260906091630 | 16 | 72 | 0.0 | 0.0 | 0.00 | 0.08 | 0.03 | 93 | 1011.1 |
| 20260906091130 | 16 | 72 | 0.0 | 0.0 | 0.00 | 0.08 | 0.03 | 93 | 1010.9 |
| 20260906090630 | 16 | 72 | 0.0 | 0.0 | 0.00 | 0.08 | 0.03 | 94 | 1011.0 |
| 20260906090130 | 16 | 72 | 0.0 | 0.0 | 0.00 | 0.08 | 0.03 | 94 | 1011.0 |
| 20260906085631 | 16 | 72 | 0.0 | 0.0 | 0.00 | 0.08 | 0.03 | 94 | 1010.8 |
| 20260906085130 | 16 | 72 | 0.0 | 0.0 | 0.00 | 0.08 | 0.03 | 93 | 1010.9 |
| 20260906084909 | 16 | 72 | 0.0 | 0.0 | 0.00 | 0.08 | 0.03 | 93 | 1010.8 |
| 20260906084406 | 16 | 72 | 0.0 | 0.0 | 0.00 | 0.08 | 0.03 | 93 | 1010.7 |
| 20260906083628 | 16 | 72 | 0.0 | 0.0 | 0.00 | 0.08 | 0.03 | 93 | 1010.7 |
| 20260906083127 | 16 | 72 | 0.0 | 0.0 | 0.00 | 0.08 | 0.03 | 93 | 1010.7 |
| 20260906082904 | 16 | 72 | 0.0 | 0.0 | 0.00 | 0.08 | 0.03 | 93 | 1010.7 |
| 20260906082124 | 17 | 72 | 0.0 | 0.0 | 0.00 | 0.08 | 0.03 | 93 | 1010.8 |
| 20260906081857 | 17 | 72 | 0.0 | 0.0 | 0.00 | 0.08 | 0.03 | 94 | 1010.7 |
| 20260906081121 | 17 | 72 | 0.0 | 0.0 | 0.00 | 0.08 | 0.03 | 94 | 1010.6 |
| 20260906080900 | 17 | 72 | 0.0 | 0.0 | 0.00 | 0.08 | 0.03 | 93 | 1010.6 |
| 20260906080120 | 17 | 72 | 0.0 | 0.0 | 0.00 | 0.08 | 0.03 | 93 | 1010.6 |
| 20260906075923 | 17 | 72 | 0.0 | 0.0 | 0.00 | 0.08 | 0.03 | 93 | 1010.6 |
| 20260906075918 | 17 | 72 | 0.0 | 0.0 | 0.00 | 0.08 | 0.03 | 93 | 1010.7 |
| 20260906074619 | 17 | 72 | 0.0 | 0.0 | 0.00 | 0.08 | 0.03 | 94 | 1010.6 |
| 20260906074118 | 17 | 72 | 0.0 | 0.0 | 0.00 | 0.08 | 0.03 | 94 | 1010.6 |
| 20260906073616 | 17 | 72 | 0.0 | 0.0 | 0.00 | 0.08 | 0.03 | 94 | 1010.6 |
| 20260906073115 | 17 | 72 | 0.0 | 0.0 | 0.00 | 0.08 | 0.03 | 94 | 1010.7 |
| 20260906072614 | 17 | 72 | 0.0 | 0.0 | 0.00 | 0.08 | 0.03 | 93 | 1010.6 |
| 20260906072116 | 17 | 72 | 0.0 | 0.0 | 0.00 | 0.08 | 0.03 | 93 | 1010.6 |
| 20260906071615 | 17 | 72 | 0.0 | 0.0 | 0.00 | 0.08 | 0.03 | 93 | 1010.5 |
| 20260906071113 | 17 | 72 | 0.0 | 0.0 | 0.00 | 0.08 | 0.03 | 94 | 1010.5 |
| 20260906070611 | 17 | 72 | 0.0 | 0.0 | 0.00 | 0.08 | 0.03 | 94 | 1010.4 |
| 20260906070353 | 17 | 72 | 0.0 | 0.0 | 0.00 | 0.08 | 0.03 | 94 | 1010.5 |
| 20260906065850 | 17 | 72 | 0.0 | 0.0 | 0.00 | 0.08 | 0.03 | 94 | 1010.6 |
| 20260906065106 | 17 | 72 | 0.0 | 0.0 | 0.00 | 0.08 | 0.03 | 93 | 1010.5 |
| 20260906064603 | 17 | 72 | 0.0 | 0.0 | 0.00 | 0.08 | 0.03 | 93 | 1010.6 |
| 20260906064105 | 18 | 72 | 0.0 | 0.0 | 0.00 | 0.08 | 0.03 | 94 | 1010.5 |
| 20260906063605 | 18 | 72 | 0.0 | 0.0 | 0.00 | 0.08 | 0.03 | 94 | 1010.6 |
| 20260906063104 | 18 | 72 | 0.0 | 0.0 | 0.00 | 0.08 | 0.03 | 94 | 1010.4 |
| 20260906062603 | 18 | 72 | 0.0 | 0.0 | 0.03 | 0.08 | 0.03 | 94 | 1010.4 |
| 20260906062103 | 18 | 72 | 0.0 | 0.0 | 0.03 | 0.08 | 0.03 | 94 | 1010.5 |
| 20260906061601 | 18 | 72 | 0.0 | 0.0 | 0.03 | 0.08 | 0.03 | 94 | 1010.6 |
| 20260906061102 | 18 | 72 | 0.0 | 0.0 | 0.03 | 0.08 | 0.03 | 94 | 1010.6 |
| 20260906060840 | 18 | 72 | 0.0 | 0.0 | 0.03 | 0.08 | 0.03 | 94 | 1010.6 |
| 20260906055844 | 18 | 72 | 0.0 | 0.0 | 0.03 | 0.05 | 0.03 | 94 | 1010.5 |
| 20260906055103 | 18 | 72 | 0.0 | 0.0 | 0.03 | 0.05 | 0.03 | 94 | 1010.4 |
| 20260906054603 | 18 | 72 | 0.0 | 0.0 | 0.03 | 0.05 | 0.03 | 94 | 1010.5 |
| 20260906054104 | 18 | 72 | 0.0 | 0.0 | 0.03 | 0.05 | 0.03 | 94 | 1010.5 |
| 20260906053603 | 18 | 72 | 0.0 | 0.0 | 0.03 | 0.05 | 0.03 | 94 | 1010.5 |
| 20260906053102 | 18 | 72 | 0.0 | 0.0 | 0.03 | 0.05 | 0.03 | 94 | 1010.5 |
| 20260906052602 | 18 | 72 | 0.0 | 0.0 | 0.00 | 0.05 | 0.00 | 94 | 1010.5 |
| 20260906052102 | 18 | 72 | 0.0 | 0.0 | 0.00 | 0.05 | 0.00 | 94 | 1010.6 |
| 20260906051603 | 18 | 72 | 0.0 | 0.0 | 0.00 | 0.05 | 0.00 | 94 | 1010.6 |
| 20260906051104 | 18 | 72 | 0.0 | 0.0 | 0.00 | 0.05 | 0.00 | 94 | 1010.7 |
| 20260906050551 | 18 | 72 | 0.0 | 0.0 | 0.00 | 0.05 | 0.00 | 94 | 1010.6 |
| 20260906050052 | 18 | 72 | 0.0 | 0.0 | 0.00 | 0.05 | 0.00 | 93 | 1010.6 |
| 20260906045552 | 19 | 72 | 0.0 | 0.0 | 0.00 | 0.05 | 0.00 | 94 | 1010.6 |
| 20260906045047 | 19 | 72 | 0.0 | 0.0 | 0.00 | 0.05 | 0.00 | 94 | 1010.8 |
| 20260906044548 | 19 | 72 | 0.0 | 0.0 | 0.00 | 0.05 | 0.00 | 93 | 1010.7 |
| 20260906044048 | 19 | 72 | 0.0 | 0.0 | 0.00 | 0.05 | 0.00 | 93 | 1010.7 |
| 20260906043530 | 19 | 72 | 0.0 | 0.0 | 0.00 | 0.05 | 0.00 | 93 | 1010.8 |
| 20260906043314 | 19 | 72 | 0.0 | 0.0 | 0.00 | 0.05 | 0.00 | 93 | 1011.0 |
| 20260906042530 | 20 | 72 | 0.0 | 0.0 | 0.00 | 0.05 | 0.00 | 93 | 1010.9 |
| 20260906042032 | 20 | 72 | 0.0 | 0.0 | 0.00 | 0.05 | 0.00 | 93 | 1011.1 |
| 20260906041526 | 20 | 72 | 0.0 | 0.0 | 0.00 | 0.05 | 0.00 | 93 | 1011.0 |
| 20260906041026 | 20 | 72 | 0.0 | 0.0 | 0.00 | 0.05 | 0.00 | 93 | 1011.0 |
| 20260906040526 | 20 | 72 | 0.0 | 0.0 | 0.00 | 0.05 | 0.00 | 92 | 1010.9 |
| 20260906040024 | 20 | 72 | 0.0 | 0.0 | 0.00 | 0.05 | 0.00 | 92 | 1010.9 |
| 20260906035524 | 20 | 72 | 0.0 | 0.0 | 0.00 | 0.05 | 0.05 | 92 | 1010.9 |
| 20260906035306 | 20 | 72 | 0.0 | 0.0 | 0.00 | 0.08 | 0.05 | 92 | 1010.8 |
| 20260906034524 | 20 | 72 | 0.0 | 0.0 | 0.00 | 0.08 | 0.05 | 91 | 1010.8 |
| 20260906034304 | 20 | 72 | 0.0 | 0.0 | 0.00 | 0.08 | 0.05 | 91 | 1010.9 |
| 20260906033830 | 21 | 72 | 0.0 | 0.0 | 0.00 | 0.08 | 0.05 | 91 | 1010.9 |
| 20260906033540 | 21 | 72 | 0.0 | 0.0 | 0.00 | 0.08 | 0.05 | 91 | 1010.9 |
| 20260906032523 | 21 | 72 | 0.0 | 0.0 | 0.00 | 0.08 | 0.05 | 91 | 1011.0 |
| 20260906032023 | 21 | 72 | 0.0 | 0.0 | 0.00 | 0.08 | 0.05 | 91 | 1011.0 |
| 20260906031523 | 21 | 72 | 0.0 | 0.0 | 0.00 | 0.08 | 0.05 | 91 | 1010.9 |
| 20260906031023 | 21 | 72 | 0.0 | 0.0 | 0.00 | 0.08 | 0.05 | 91 | 1011.0 |
| 20260906030523 | 21 | 72 | 0.0 | 0.0 | 0.00 | 0.08 | 0.05 | 91 | 1010.9 |
| 20260906030023 | 21 | 72 | 0.0 | 0.0 | 0.00 | 0.08 | 0.05 | 91 | 1011.0 |
| 20260906025523 | 21 | 72 | 0.0 | 0.0 | 0.00 | 0.08 | 0.05 | 91 | 1010.9 |
| 20260906025044 | 21 | 72 | 0.0 | 0.0 | 0.00 | 0.08 | 0.05 | 91 | 1010.8 |
| 20260906025036 | 21 | 72 | 0.0 | 0.0 | 0.00 | 0.08 | 0.05 | 91 | 1010.8 |
| 20260906024022 | 21 | 72 | 0.0 | 0.0 | 0.00 | 0.08 | 0.05 | 91 | 1010.8 |
| 20260906023522 | 21 | 72 | 0.0 | 0.0 | 0.00 | 0.08 | 0.05 | 91 | 1010.8 |
| 20260906023021 | 21 | 72 | 0.0 | 0.0 | 0.00 | 0.08 | 0.05 | 91 | 1010.8 |
| 20260906022521 | 21 | 72 | 0.0 | 0.0 | 0.00 | 0.08 | 0.05 | 92 | 1010.7 |
| 20260906022023 | 21 | 72 | 0.0 | 0.0 | 0.00 | 0.08 | 0.05 | 92 | 1010.6 |
| 20260906021523 | 21 | 72 | 0.0 | 0.0 | 0.00 | 0.08 | 0.05 | 92 | 1010.8 |
| 20260906021022 | 22 | 72 | 0.0 | 0.0 | 0.00 | 0.08 | 0.05 | 92 | 1010.7 |
| 20260906020521 | 22 | 72 | 0.0 | 0.0 | 0.00 | 0.08 | 0.05 | 92 | 1010.6 |
| 20260906020259 | 22 | 72 | 0.0 | 0.0 | 0.00 | 0.08 | 0.05 | 92 | 1010.7 |
| 20260906015521 | 22 | 72 | 0.0 | 0.0 | 0.00 | 0.08 | 0.05 | 92 | 1010.6 |
| 20260906015258 | 22 | 72 | 0.0 | 0.0 | 0.00 | 0.10 | 0.05 | 92 | 1010.6 |
| 20260906014522 | 22 | 72 | 0.0 | 0.0 | 0.00 | 0.10 | 0.05 | 91 | 1010.5 |
| 20260906014021 | 22 | 72 | 0.0 | 0.0 | 0.00 | 0.10 | 0.05 | 92 | 1010.5 |
| 20260906013520 | 22 | 72 | 0.0 | 0.0 | 0.00 | 0.10 | 0.05 | 91 | 1010.5 |
| 20260906013020 | 22 | 72 | 0.0 | 0.0 | 0.00 | 0.10 | 0.05 | 91 | 1010.3 |
| 20260906012824 | 22 | 72 | 0.0 | 0.0 | 0.00 | 0.10 | 0.05 | 92 | 1010.2 |
| 20260906012819 | 22 | 72 | 0.0 | 0.0 | 0.00 | 0.10 | 0.05 | 92 | 1010.3 |
| 20260906011520 | 22 | 72 | 0.0 | 0.0 | 0.00 | 0.10 | 0.05 | 92 | 1010.2 |
| 20260906011019 | 22 | 72 | 0.0 | 0.0 | 0.00 | 0.10 | 0.05 | 92 | 1010.2 |
| 20260906010520 | 22 | 72 | 0.0 | 0.0 | 0.00 | 0.10 | 0.05 | 92 | 1010.1 |
| 20260906010020 | 22 | 72 | 0.0 | 0.0 | 0.00 | 0.10 | 0.05 | 92 | 1010.0 |
| 20260906005520 | 22 | 72 | 0.0 | 0.0 | 0.00 | 0.10 | 0.05 | 92 | 1009.8 |
| 20260906005020 | 22 | 72 | 0.0 | 0.0 | 0.00 | 0.10 | 0.05 | 92 | 1009.8 |
| 20260906004519 | 22 | 72 | 0.0 | 0.0 | 0.00 | 0.10 | 0.05 | 92 | 1009.8 |
| 20260906004259 | 22 | 72 | 0.0 | 0.0 | 0.00 | 0.10 | 0.05 | 92 | 1009.6 |
| 20260906003519 | 22 | 72 | 0.0 | 0.0 | 0.00 | 0.10 | 0.05 | 92 | 1009.6 |
| 20260906003019 | 23 | 72 | 0.0 | 0.0 | 0.00 | 0.10 | 0.05 | 92 | 1009.6 |
| 20260906002758 | 23 | 72 | 0.0 | 0.0 | 0.00 | 0.10 | 0.05 | 92 | 1009.6 |
| 20260906002019 | 23 | 72 | 0.0 | 0.0 | 0.00 | 0.10 | 0.05 | 91 | 1009.5 |
| 20260906001518 | 23 | 72 | 0.0 | 0.0 | 0.00 | 0.10 | 0.05 | 91 | 1009.5 |
| 20260906001014 | 23 | 72 | 0.0 | 0.0 | 0.00 | 0.10 | 0.05 | 91 | 1009.5 |
| 20260906000515 | 23 | 72 | 0.0 | 0.0 | 0.00 | 0.10 | 0.05 | 91 | 1009.6 |
| 20260906000256 | 23 | 72 | 0.0 | 0.0 | 0.00 | 0.10 | 0.05 | 90 | 1009.4 |
| 20260905235513 | 23 | 72 | 0.0 | 0.0 | 0.00 | 0.10 | 0.05 | 90 | 1009.3 |
| 20260905235013 | 23 | 72 | 0.0 | 0.0 | 0.00 | 0.10 | 0.05 | 89 | 1009.4 |
| 20260905234515 | 23 | 72 | 0.0 | 0.0 | 0.00 | 0.10 | 0.05 | 89 | 1009.5 |
| 20260905234037 | 23 | 72 | 0.0 | 0.0 | 0.00 | 0.10 | 0.05 | 88 | 1009.4 |
| 20260905234028 | 23 | 72 | 0.0 | 0.0 | 0.00 | 0.10 | 0.05 | 89 | 1009.5 |
| 20260905233011 | 24 | 72 | 0.0 | 0.0 | 0.00 | 0.10 | 0.05 | 88 | 1009.2 |
| 20260905232507 | 24 | 72 | 0.0 | 0.0 | 0.00 | 0.13 | 0.05 | 87 | 1009.2 |
| 20260905232004 | 24 | 72 | 0.0 | 0.0 | 0.00 | 0.13 | 0.05 | 87 | 1009.2 |
| 20260905231502 | 24 | 72 | 0.0 | 0.0 | 0.00 | 0.13 | 0.05 | 86 | 1009.1 |
| 20260905231002 | 24 | 72 | 0.0 | 0.0 | 0.00 | 0.13 | 0.05 | 86 | 1009.0 |
| 20260905230501 | 24 | 72 | 0.0 | 0.0 | 0.00 | 0.13 | 0.05 | 85 | 1009.1 |
| 20260905230002 | 24 | 72 | 0.0 | 0.0 | 0.00 | 0.13 | 0.05 | 84 | 1009.1 |
| 20260905225502 | 25 | 72 | 0.0 | 0.0 | 0.00 | 0.13 | 0.05 | 83 | 1009.1 |
| 20260905225004 | 25 | 72 | 0.0 | 0.0 | 0.00 | 0.13 | 0.05 | 83 | 1009.1 |
| 20260905224504 | 25 | 72 | 0.0 | 0.0 | 0.00 | 0.13 | 0.05 | 83 | 1009.0 |
| 20260905224003 | 25 | 72 | 0.0 | 0.0 | 0.00 | 0.13 | 0.05 | 82 | 1009.0 |
| 20260905223502 | 25 | 72 | 0.0 | 0.0 | 0.00 | 0.13 | 0.05 | 83 | 1009.0 |
| 20260905223005 | 25 | 72 | 0.0 | 0.0 | 0.00 | 0.13 | 0.05 | 83 | 1009.0 |
| 20260905222503 | 25 | 72 | 0.0 | 0.0 | 0.00 | 0.13 | 0.05 | 82 | 1009.0 |
| 20260905222003 | 25 | 72 | 0.0 | 0.0 | 0.00 | 0.13 | 0.05 | 82 | 1009.0 |
| 20260905221503 | 25 | 72 | 0.0 | 0.0 | 0.00 | 0.13 | 0.05 | 81 | 1009.0 |
| 20260905221003 | 25 | 72 | 0.0 | 0.0 | 0.00 | 0.13 | 0.05 | 81 | 1009.1 |
| 20260905220505 | 25 | 72 | 0.0 | 0.0 | 0.00 | 0.13 | 0.05 | 80 | 1009.1 |
| 20260905220241 | 25 | 72 | 0.0 | 0.0 | 0.00 | 0.13 | 0.05 | 80 | 1008.9 |
| 20260905215741 | 25 | 72 | 0.0 | 0.0 | 0.00 | 0.13 | 0.05 | 79 | 1008.8 |
| 20260905214956 | 25 | 72 | 0.0 | 3.2 | 0.00 | 0.15 | 0.05 | 79 | 1008.8 |
| 20260905214447 | 25 | 72 | 0.0 | 3.2 | 0.00 | 0.15 | 0.05 | 80 | 1008.8 |
| 20260905213946 | 25 | 72 | 0.0 | 1.6 | 0.00 | 0.15 | 0.05 | 82 | 1008.8 |
| 20260905213444 | 25 | 72 | 0.0 | 1.6 | 0.00 | 0.15 | 0.05 | 83 | 1008.7 |
| 20260905212939 | 25 | 72 | 0.0 | 1.6 | 0.00 | 0.15 | 0.05 | 83 | 1008.6 |
| 20260905212441 | 25 | 73 | 0.0 | 3.2 | 0.00 | 0.15 | 0.05 | 83 | 1008.4 |
| 20260905211940 | 25 | 73 | 0.0 | 3.2 | 0.00 | 0.15 | 0.05 | 83 | 1008.4 |
| 20260905211440 | 25 | 73 | 0.0 | 0.0 | 0.00 | 0.15 | 0.05 | 83 | 1008.4 |
| 20260905210941 | 26 | 73 | 0.0 | 1.6 | 0.00 | 0.15 | 0.05 | 81 | 1008.3 |
| 20260905210723 | 26 | 73 | 0.0 | 1.6 | 0.00 | 0.15 | 0.05 | 82 | 1008.4 |
| 20260905205939 | 26 | 73 | 0.0 | 0.0 | 0.00 | 0.15 | 0.05 | 81 | 1008.2 |
| 20260905205430 | 26 | 73 | 0.0 | 0.0 | 0.00 | 0.15 | 0.05 | 80 | 1008.3 |
| 20260905204931 | 26 | 73 | 0.0 | 3.2 | 0.00 | 0.15 | 0.05 | 78 | 1008.3 |
| 20260905204430 | 26 | 73 | 1.6 | 3.2 | 0.00 | 0.15 | 0.05 | 75 | 1008.5 |
| 20260905203930 | 26 | 279 | 0.0 | 3.2 | 0.00 | 0.15 | 0.05 | 74 | 1008.4 |
| 20260905203427 | 26 | 51 | 0.0 | 6.4 | 0.00 | 0.15 | 0.05 | 75 | 1008.4 |
| 20260905202926 | 26 | 51 | 3.2 | 6.4 | 0.00 | 0.15 | 0.05 | 74 | 1008.3 |
| 20260905202424 | 26 | 66 | 1.6 | 4.8 | 0.00 | 0.15 | 0.05 | 77 | 1008.4 |
| 20260905201923 | 26 | 149 | 0.0 | 3.2 | 0.00 | 0.18 | 0.05 | 75 | 1008.4 |
| 20260905201423 | 27 | 48 | 0.0 | 6.4 | 0.00 | 0.18 | 0.05 | 75 | 1008.5 |
| 20260905200923 | 26 | 48 | 1.6 | 6.4 | 0.00 | 0.18 | 0.05 | 74 | 1008.5 |
| 20260905200729 | 27 | 235 | 0.0 | 4.8 | 0.00 | 0.18 | 0.05 | 75 | 1008.6 |
| 20260905200438 | 27 | 251 | 0.0 | 4.8 | 0.00 | 0.18 | 0.05 | 75 | 1008.5 |
| 20260905195418 | 27 | 72 | 1.6 | 9.7 | 0.00 | 0.18 | 0.05 | 74 | 1008.5 |
| 20260905194918 | 27 | 72 | 1.6 | 9.7 | 0.00 | 0.18 | 0.05 | 72 | 1008.5 |
| 20260905194415 | 27 | 93 | 3.2 | 9.7 | 0.00 | 0.18 | 0.05 | 72 | 1008.7 |
| 20260905193913 | 27 | 68 | 3.2 | 9.7 | 0.00 | 0.18 | 0.05 | 73 | 1008.7 |
| 20260905193414 | 27 | 56 | 1.6 | 6.4 | 0.00 | 0.18 | 0.05 | 75 | 1008.7 |
| 20260905192914 | 27 | 310 | 0.0 | 1.6 | 0.00 | 0.18 | 0.05 | 75 | 1008.7 |
| 20260905192413 | 27 | 309 | 0.0 | 3.2 | 0.00 | 0.20 | 0.05 | 75 | 1008.8 |
| 20260905191914 | 27 | 306 | 1.6 | 4.8 | 0.00 | 0.20 | 0.05 | 73 | 1008.8 |
| 20260905191654 | 27 | 337 | 1.6 | 4.8 | 0.00 | 0.20 | 0.05 | 73 | 1008.7 |
| 20260905190913 | 26 | 37 | 0.0 | 6.4 | 0.00 | 0.20 | 0.05 | 76 | 1008.8 |
| 20260905190412 | 27 | 37 | 0.0 | 8.0 | 0.00 | 0.20 | 0.05 | 74 | 1008.8 |
| 20260905185912 | 27 | 245 | 3.2 | 8.0 | 0.00 | 0.20 | 0.05 | 74 | 1008.8 |
| 20260905185413 | 27 | 54 | 3.2 | 8.0 | 0.00 | 0.20 | 0.05 | 75 | 1009.0 |
| 20260905184911 | 26 | 68 | 1.6 | 4.8 | 0.00 | 0.20 | 0.05 | 75 | 1009.0 |
| 20260905184411 | 26 | 68 | 3.2 | 4.8 | 0.00 | 0.20 | 0.05 | 75 | 1009.1 |
| 20260905183911 | 27 | 203 | 1.6 | 4.8 | 0.00 | 0.20 | 0.05 | 76 | 1009.1 |
| 20260905183412 | 26 | 54 | 1.6 | 4.8 | 0.00 | 0.20 | 0.05 | 74 | 1009.0 |
| 20260905182911 | 26 | 28 | 0.0 | 6.4 | 0.00 | 0.20 | 0.05 | 76 | 1009.1 |
| 20260905182412 | 26 | 32 | 4.8 | 6.4 | 0.03 | 0.23 | 0.05 | 76 | 1009.1 |
| 20260905182218 | 27 | 48 | 1.6 | 9.7 | 0.03 | 0.23 | 0.05 | 74 | 1009.2 |
| 20260905181928 | 27 | 10 | 1.6 | 4.8 | 0.03 | 0.23 | 0.05 | 76 | 1009.3 |
| 20260905180910 | 26 | 45 | 1.6 | 9.7 | 0.03 | 0.23 | 0.05 | 76 | 1009.3 |
| 20260905180411 | 26 | 51 | 3.2 | 6.4 | 0.03 | 0.23 | 0.05 | 75 | 1009.3 |
| 20260905180151 | 26 | 282 | 1.6 | 8.0 | 0.03 | 0.20 | 0.05 | 75 | 1009.4 |
| 20260905175410 | 26 | 278 | 1.6 | 8.0 | 0.03 | 0.20 | 0.05 | 78 | 1009.5 |
| 20260905175143 | 26 | 79 | 1.6 | 3.2 | 0.03 | 0.23 | 0.05 | 79 | 1009.5 |
| 20260905174404 | 26 | 38 | 1.6 | 3.2 | 0.03 | 0.23 | 0.05 | 79 | 1009.5 |
| 20260905174139 | 26 | 38 | 1.6 | 3.2 | 0.03 | 0.23 | 0.05 | 78 | 1009.7 |
| 20260905173402 | 26 | 34 | 0.0 | 3.2 | 0.03 | 0.23 | 0.05 | 79 | 1009.9 |
| 20260905173143 | 26 | 34 | 0.0 | 0.0 | 0.03 | 0.23 | 0.05 | 78 | 1009.8 |
| 20260905172645 | 26 | 34 | 0.0 | 0.0 | 0.00 | 0.23 | 0.03 | 77 | 1009.9 |
| 20260905171903 | 26 | 34 | 0.0 | 0.0 | 0.00 | 0.23 | 0.03 | 81 | 1009.9 |
| 20260905171402 | 26 | 38 | 0.0 | 0.0 | 0.00 | 0.23 | 0.03 | 79 | 1010.0 |
| 20260905170902 | 26 | 38 | 0.0 | 0.0 | 0.00 | 0.25 | 0.03 | 81 | 1010.2 |
| 20260905170402 | 26 | 35 | 0.0 | 0.0 | 0.00 | 0.25 | 0.03 | 82 | 1010.2 |
| 20260905165904 | 26 | 35 | 0.0 | 0.0 | 0.00 | 0.25 | 0.03 | 83 | 1010.2 |
| 20260905165403 | 26 | 35 | 0.0 | 0.0 | 0.00 | 0.25 | 0.03 | 82 | 1010.2 |
| 20260905164843 | 26 | 35 | 0.0 | 0.0 | 0.00 | 0.25 | 0.03 | 80 | 1010.3 |
| 20260905164342 | 26 | 37 | 0.0 | 0.0 | 0.00 | 0.28 | 0.03 | 79 | 1010.2 |
| 20260905163843 | 26 | 37 | 0.0 | 4.8 | 0.00 | 0.28 | 0.03 | 79 | 1010.2 |
| 20260905163342 | 26 | 37 | 1.6 | 4.8 | 0.00 | 0.28 | 0.03 | 79 | 1010.4 |
| 20260905162839 | 26 | 303 | 0.0 | 0.0 | 0.00 | 0.28 | 0.03 | 79 | 1010.3 |
| 20260905162339 | 26 | 303 | 0.0 | 0.0 | 0.00 | 0.28 | 0.03 | 80 | 1010.4 |
| 20260905161838 | 25 | 306 | 0.0 | 0.0 | 0.00 | 0.28 | 0.03 | 81 | 1010.5 |
| 20260905161334 | 25 | 306 | 0.0 | 0.0 | 0.00 | 0.28 | 0.03 | 82 | 1010.5 |
| 20260905160835 | 25 | 306 | 0.0 | 0.0 | 0.00 | 0.28 | 0.03 | 80 | 1010.7 |
| 20260905160335 | 25 | 305 | 0.0 | 0.0 | 0.00 | 0.30 | 0.03 | 82 | 1010.8 |
| 20260905155834 | 25 | 309 | 0.0 | 3.2 | 0.00 | 0.30 | 0.03 | 82 | 1010.6 |
| 20260905155614 | 25 | 307 | 0.0 | 4.8 | 0.00 | 0.30 | 0.03 | 80 | 1010.7 |
| 20260905154833 | 26 | 23 | 0.0 | 4.8 | 0.00 | 0.30 | 0.03 | 80 | 1010.8 |
| 20260905154700 | 25 | 241 | 1.6 | 6.4 | 0.00 | 0.33 | 0.03 | 81 | 1010.7 |
| 20260905154408 | 26 | 285 | 1.6 | 4.8 | 0.00 | 0.33 | 0.03 | 81 | 1010.6 |
| 20260905154131 | 25 | 63 | 1.6 | 4.8 | 0.00 | 0.33 | 0.03 | 82 | 1010.6 |
| 20260905152831 | 25 | 52 | 0.0 | 6.4 | 0.00 | 0.33 | 0.03 | 83 | 1010.7 |
| 20260905152331 | 25 | 278 | 0.0 | 4.8 | 0.00 | 0.33 | 0.03 | 83 | 1010.8 |
| 20260905151830 | 25 | 63 | 0.0 | 3.2 | 0.00 | 0.36 | 0.03 | 83 | 1010.9 |
| 20260905151612 | 25 | 63 | 0.0 | 3.2 | 0.00 | 0.36 | 0.03 | 84 | 1010.8 |
| 20260905150832 | 25 | 63 | 0.0 | 0.0 | 0.00 | 0.36 | 0.03 | 86 | 1011.0 |
| 20260905150332 | 25 | 63 | 0.0 | 1.6 | 0.00 | 0.36 | 0.03 | 85 | 1011.0 |
| 20260905145832 | 25 | 63 | 0.0 | 3.2 | 0.00 | 0.38 | 0.03 | 84 | 1011.0 |
| 20260905145331 | 25 | 63 | 0.0 | 3.2 | 0.00 | 0.38 | 0.03 | 84 | 1011.0 |